Location: Artigas
(10.4993°N, 66.9435°W)
Time: 12:33:26
(UTC+00:00)

Daily predictions for brighter satellites

Satellite Brightness Start Highest point End
(mag) Time Altitude Azimuth Time Altitude Azimuth Time Altitude Azimuth
Cosmos 405 Rocket 2.7 23:08:32 10° S 23:12:21 80° E 23:16:14 10° N
ARIANE 5 R/B 3.3 23:08:34 10° WSW 23:13:54 23° SSW 23:16:06 10° SE
Ariane H10+ 3.7 23:16:21 10° SW 23:21:26 41° SSE 23:36:07 10° E
ATLAS 3B CENTAUR R/B 2.3 23:20:53 10° W 23:24:09 44° SSW 23:30:22 10° SE
PSLV R/B 3.9 23:20:47 10° NNE 23:24:55 87° ESE 23:29:06 10° S
In-Cosmos 22 Rocket 4.1 23:20:32 10° S 23:25:50 90° E 23:31:09 10° N
Okean O Rocket 3.3 23:22:55 10° SSW 23:26:54 35° W 23:30:55 10° NW
ARIANE 5 R/B 4.1 23:29:55 10° WSW 23:33:20 53° S 23:38:56 13° E
Cosmos 1953 Rocket 3.5 23:32:01 10° S 23:36:27 68° E 23:40:54 10° N
Aurora 2 Rocket 4.2 23:31:05 10° W 23:37:04 61° NNW 23:45:40 10° ENE
Cosmos 1464 Rocket 4.4 23:32:09 10° N 23:38:17 67° W 23:44:22 10° S
GPS 2-12 Rocket1 4.0 23:34:48 10° WNW 23:39:21 41° NNE 23:43:11 14° E
ARGOS 3.3 23:34:46 10° S 23:40:11 82° WSW 23:45:37 10° NNW
Cosmos 1869 4.1 23:43:30 10° NNE 23:46:52 29° E 23:48:15 23° ESE
Maqsat-H 3.3 23:44:22 10° SW 23:47:24 16° S 23:48:45 14° SSE
Cosmos 1437 Rocket 3.8 23:50:54 10° NNE 23:54:15 26° E 23:54:37 26° E
